Temperature
13 13 13 13 13 13 13 13 13 13 13 13 13 13 13 13 13 13 13 13 13 13 13 13 13 12 12 12 12 12 12 12 12 11 11 11 11 11
13 13 13 13 13 13 13 13 13 13 13 13 13 13 13 13 12 12 12 13 13 13 12 12 12 12 12 12 12 12 12 11 11 11 11 11 11 11
13 13 13 13 13 13 13 13 13 13 13 13 12 12 12 12 12 12 12 12 12 12 12 12 12 12 12 12 12 12 11 11 11 11 11 11 11 11
12 12 12 12 12 12 12 12 13 13 13 13 12 12 12 12 12 12 12 12 12 12 12 12 12 12 12 12 12 11 11 11 11 11 11 11 11 11
12 12 12 12 12 12 12 12 12 12 12 12 12 12 12 12 12 12 12 12 12 12 12 12 12 12 12 11 11 11 11 11 11 11 11 11 11 11
12 12 12 12 12 12 12 12 12 12 12 12 12 12 12 12 11 11 11 11 11 11 11 11 11 11 11 11 11 11 11 11 11 11 11 11 10 10
12 12 12 12 12 12 12 12 12 11 11 11 11 11 11 11 11 11 11 11 11 11 11 11 11 11 11 11 11 11 11 11 11 10 10 10 10 10
12 12 11 11 11 11 11 11 11 11 11 11 11 11 11 11 11 11 11 11 11 11 11 11 11 11 11 11 11 11 11 11 10 10 10 10 10 10
12 11 11 11 11 11 11 11 11 11 11 11 11 11 11 11 11 10 10 11 11 11 10 11 11 11 11 10 10 10 10 10 10 10 10 10 10 9
11 11 11 11 11 11 11 11 11 11 11 10 10 10 10 10 10 10 10 10 10 10 10 10 10 10 10 10 10 10 10 10 10 10 10 9 9 9
11 11 11 10 10 10 10 10 10 10 10 10 10 10 10 10 10 10 10 9 9 10 9 9 10 10 10 10 10 10 10 9 9 9 9 9 9 9
10 10 10 10 10 10 10 10 10 10 10 10 10 10 9 9 9 9 9 9 9 9 9 9 9 9 9 9 9 9 9 9 9 9 9 9 8 8
10 9 9 9 9 9 9 9 9 9 9 9 9 9 9 9 9 9 9 9 9 9 9 8 9 8 8 8 8 8 8 8 8 8 8 8 8 8
9 9 9 9 9 9 8 8 8 8 8 8 8 8 8 8 8 8 8 8 8 8 8 8 8 8 8 8 8 8 8 7 7 7 7 7 7 7
8 8 8 8 8 8 8 8 8 8 8 8 8 8 8 8 8 8 8 8 8 7 7 7 7 7 7 7 7 7 7 7 7 7 7 7 7 7
8 8 8 8 8 7 7 7 7 7 7 7 7 7 7 7 7 7 7 7 7 7 7 7 7 7 6 6 6 6 6 6 6 6 6 6 6 6
7 7 7 7 7 7 7 7 7 7 7 6 6 6 6 6 6 6 6 6 6 6 6 6 6 6 6 6 6 6 6 6 5 5 5 5 5 5
7 7 7 6 6 6 6 6 6 6 6 6 6 6 6 6 6 6 6 5 5 6 6 6 5 5 5 5 5 5 5 5 5 4 4 4 5 5
6 6 6 6 6 6 6 6 6 6 5 5 5 5 5 5 5 5 5 5 5 5 5 5 5 5 4 4 4 5 4 4 4 4 4 4 4 4
6 6 6 6 6 6 6 5 5 5 5 5 5 5 5 5 5 5 5 4 4 4 4 4 4 4 4 4 4 4 4 4 4 4 4 4 4 4
5 5 5 5 5 5 5 5 5 5 5 5 5 5 5 4 4 4 4 4 4 4 4 4 4 4 3 3 3 4 4 4 3 3 3 3 3 3
5 5 5 5 5 5 5 5 4 4 4 4 4 4 4 4 4 4 4 4 4 4 3 3 3 3 3 3 3 3 3 3 3 3 3 3 3 3
4 4 4 4 4 4 4 4 4 4 4 4 4 4 4 4 3 3 3 3 3 3 3 3 3 3 3 3 3 3 3 3 3 3 3 3 3 3
Wind_Speed
1 1 1 1 1 2 3 3 4 2 2 2 1 2 3 4 4 4 3 4 4 3 3 3 3 3 3 4 4 3 4 3 3 2 2 2 2 2
1 1 0 1 0 1 2 2 3 3 3 3 2 2 3 3 4 5 4 3 3 3 3 3 3 3 3 4 4 4 4 4 3 2 2 2 2 2
0 1 1 0 1 1 1 2 2 2 3 1 1 1 2 2 2 3 3 3 2 3 3 3 3 3 3 4 4 5 5 4 4 3 2 2 1 1
1 1 1 1 1 1 1 1 1 2 3 3 1 0 1 2 2 2 2 2 2 3 3 4 4 4 4 4 5 5 4 4 4 4 3 2 2 1
2 2 2 1 1 1 1 1 1 1 2 3 2 1 0 0 1 0 0 0 1 2 3 4 4 4 4 5 5 5 5 5 5 5 4 4 3 2
2 2 2 2 2 2 2 2 2 2 1 2 2 1 1 0 1 1 1 2 2 1 1 2 4 4 5 6 6 6 6 6 6 6 6 5 5 4
1 2 2 2 2 2 1 2 3 2 2 2 2 1 1 1 2 1 1 1 2 1 1 1 1 2 4 5 6 6 7 7 8 8 7 6 6 5
2 1 1 1 1 1 2 3 4 4 3 3 2 3 3 2 2 2 1 1 2 2 1 2 1 2 3 4 5 5 6 7 8 8 8 7 6 5
3 2 1 1 1 1 1 1 1 3 4 4 4 4 4 4 4 3 3 3 3 2 1 2 1 2 3 4 4 4 4 5 6 7 7 7 7 6
3 3 3 1 1 2 2 1 0 0 2 2 4 4 3 4 5 5 4 2 1 1 1 1 2 2 2 3 3 3 3 3 3 4 5 6 6 6
2 2 3 3 2 3 3 2 1 1 1 0 1 2 2 3 4 3 2 2 1 2 1 1 1 1 1 1 2 2 2 2 3 3 3 3 4 5
1 1 2 2 3 4 4 3 2 2 1 1 1 2 1 2 4 4 4 3 2 2 1 2 1 0 1 1 1 1 1 2 2 3 3 3 3 2
1 1 2 2 3 4 4 3 4 2 1 1 0 1 1 1 1 2 3 3 3 3 2 2 1 1 1 1 1 1 1 1 1 2 3 3 3 3
3 3 2 1 2 2 3 2 2 2 1 1 0 1 1 2 2 2 3 3 3 4 4 4 2 2 2 1 2 1 1 1 2 2 3 3 3 3
2 2 1 1 1 1 1 1 2 2 2 1 1 2 2 2 1 1 1 1 1 1 2 4 2 2 2 2 2 1 1 1 2 2 2 2 3 2
1 1 1 1 1 1 0 1 1 2 2 2 2 2 1 0 1 0 1 0 0 2 2 1 3 3 2 2 2 2 2 2 2 2 2 2 3 4
2 2 1 1 1 0 0 0 1 1 1 1 1 1 1 1 1 1 0 0 1 2 2 1 0 1 2 3 2 3 2 2 2 2 1 2 3 4
3 1 1 2 2 2 2 1 1 2 2 1 1 1 1 2 2 1 1 1 2 2 2 2 1 1 1 1 3 4 3 3 3 2 2 3 4 5
3 2 3 3 3 3 3 3 2 3 2 2 2 2 2 2 2 1 1 1 2 3 3 2 2 2 2 4 3 4 4 3 2 2 3 4 5 5
2 3 4 3 3 3 3 3 3 2 2 2 2 2 2 2 2 2 2 3 3 2 2 2 3 4 5 5 4 3 5 5 3 4 4 3 4 5
3 3 4 3 3 3 3 3 3 3 3 3 3 3 3 3 3 3 3 4 3 3 3 4 4 5 2 1 2 3 3 6 7 5 4 3 3 3
4 4 4 4 4 4 4 3 3 3 4 4 4 4 4 3 4 4 4 3 4 4 4 4 2 1 1 3 5 5 5 4 6 9 9 8 4 5
4 4 4 4 4 4 4 4 4 4 4 4 4 4 4 4 4 4 4 4 4 4 4 3 2 2 3 4 5 5 6 5 4 4 6 10 12 14
Wind_Direction
205 186 178 226 184 169 157 157 157 179 238 250 246 239 188 173 170 159 157 156 153 147 149 148 141 148 151 146 149 150 150 147 147 143 134 111 87 73
190 153 195 235 176 148 161 168 162 163 199 226 224 219 186 178 180 172 176 172 171 170 169 164 163 168 171 169 169 166 162 154 155 160 146 126 100 77
213 172 225 150 122 117 128 147 151 149 164 229 239 215 165 169 165 176 185 169 179 193 198 191 184 178 175 176 172 167 165 163 161 162 161 162 164 154
220 188 241 182 134 120 132 143 162 159 152 174 214 180 176 183 180 184 183 190 196 218 213 209 206 198 189 183 179 176 175 177 178 180 187 190 188 182
199 190 225 162 174 204 167 162 161 141 133 153 185 185 103 101 119 100 61 327 239 234 220 221 219 217 206 199 192 191 194 197 198 199 204 207 209 212
203 196 195 184 194 204 186 181 153 126 128 143 153 150 139 332 116 133 345 335 317 308 244 228 223 224 222 216 213 213 211 213 212 210 211 213 215 217
199 206 207 206 226 210 198 183 155 147 149 154 165 147 168 165 194 198 211 304 322 309 320 292 240 231 232 230 227 228 224 223 221 218 214 215 215 218
186 220 239 225 233 212 182 166 166 166 179 177 190 198 216 210 192 188 182 211 280 279 207 283 246 254 248 237 242 237 233 229 224 219 215 215 215 218
192 191 226 274 202 190 193 147 177 181 175 176 188 210 209 208 188 196 206 207 234 246 169 264 271 255 254 249 244 234 237 232 221 217 217 217 218 222
198 188 187 217 204 159 150 132 107 235 201 181 195 214 218 201 195 199 200 203 271 277 143 230 275 270 273 249 234 224 229 236 234 228 226 227 227 226
203 189 186 193 197 152 144 152 129 327 342 182 204 207 205 192 170 143 149 156 261 272 188 181 255 287 294 287 268 231 229 255 258 244 237 235 232 227
229 225 210 186 182 159 160 165 182 240 291 0 353 335 306 189 180 182 184 186 202 241 229 174 219 214 284 297 300 269 241 261 264 256 250 250 242 209
220 234 238 204 177 167 163 180 204 195 189 185 259 309 333 310 233 212 196 191 197 226 208 168 192 193 198 259 303 288 249 255 247 264 265 261 252 205
214 224 232 211 188 181 187 211 193 141 130 134 149 291 293 283 270 249 223 213 212 216 201 177 186 189 179 210 260 290 281 261 240 253 254 266 261 253
220 217 200 191 193 193 201 175 133 128 137 158 227 249 261 275 307 339 319 272 297 291 204 197 188 181 171 191 221 223 264 273 237 234 240 225 224 228
205 182 142 118 112 76 55 172 159 171 177 205 229 249 268 292 297 270 246 247 314 310 316 254 200 170 179 200 193 214 217 230 250 238 231 238 248 239
142 96 80 80 90 20 354 281 188 163 192 213 208 215 223 232 250 283 262 193 219 250 281 322 35 183 196 191 205 222 228 246 245 239 235 270 268 248
122 147 188 201 212 218 224 240 225 219 222 212 209 218 225 235 252 258 256 220 238 247 247 239 186 57 21 310 227 216 228 242 251 241 223 244 266 264
150 194 210 217 221 222 223 220 225 227 216 208 216 228 234 239 245 247 247 246 251 252 251 228 203 187 233 269 273 222 221 241 234 239 235 235 253 263
190 207 218 224 225 224 224 224 225 220 212 217 222 228 231 233 240 242 239 245 252 258 265 247 226 219 224 241 255 267 234 220 224 240 250 253 262 274
213 221 225 225 226 227 228 226 221 219 222 220 227 230 227 230 243 245 245 258 257 255 255 258 259 260 248 194 260 270 264 241 232 231 234 249 273 281
220 223 227 229 227 227 228 226 224 224 224 225 230 231 229 227 236 242 241 244 249 253 259 269 267 255 219 235 251 262 278 284 268 258 247 235 226 235
226 226 229 233 233 230 227 227 227 232 231 230 230 231 230 234 237 236 241 242 247 255 263 269 262 253 258 248 253 262 269 275 277 278 276 266 255 255
Height
1526 1526 1526 1526 1526 1526 1527 1527 1528 1527 1528 1528 1529 1529 1530 1530 1530 1530 1529 1529 1529 1529 1529 1529 1529 1529 1529 1529 1530 1530 1530 1531 1531 1531 1530 1530 1530 1530
1524 1524 1524 1524 1524 1524 1525 1525 1526 1526 1526 1526 1527 1528 1528 1529 1529 1529 1529 1529 1529 1529 1529 1529 1529 1528 1528 1529 1529 1529 1529 1529 1529 1529 1529 1529 1529 1529
1522 1522 1522 1522 1522 1522 1523 1523 1523 1524 1524 1525 1525 1526 1526 1527 1527 1527 1528 1528 1528 1528 1528 1528 1527 1527 1527 1527 1528 1528 1528 1528 1528 1528 1528 1528 1528 1528
1520 1520 1520 1520 1520 1520 1521 1521 1521 1522 1522 1522 1523 1524 1524 1525 1525 1526 1526 1526 1526 1526 1526 1526 1526 1526 1526 1526 1526 1526 1526 1526 1526 1526 1526 1526 1526 1526
1518 1518 1518 1518 1518 1518 1519 1519 1519 1520 1520 1521 1521 1522 1522 1523 1523 1524 1524 1524 1524 1524 1524 1524 1524 1524 1524 1524 1524 1524 1524 1524 1524 1524 1524 1524 1524 1525
1516 1516 1516 1516 1516 1516 1516 1517 1517 1517 1518 1518 1518 1519 1520 1520 1521 1521 1521 1522 1522 1522 1522 1522 1522 1522 1522 1522 1522 1522 1522 1521 1521 1521 1522 1522 1522 1523
1513 1513 1513 1513 1513 1514 1514 1514 1514 1515 1515 1516 1516 1516 1517 1517 1518 1518 1518 1519 1519 1519 1519 1519 1519 1519 1519 1519 1519 1519 1518 1517 1517 1517 1518 1519 1520 1520
1510 1510 1511 1511 1511 1511 1511 1512 1512 1512 1513 1513 1513 1513 1514 1514 1515 1515 1515 1516 1515 1517 1516 1516 1516 1516 1516 1516 1516 1516 1515 1513 1512 1512 1514 1515 1517 1517
1508 1507 1508 1508 1508 1508 1508 1509 1509 1510 1510 1510 1510 1510 1511 1511 1512 1512 1512 1513 1512 1513 1513 1512 1513 1513 1514 1513 1513 1513 1512 1511 1510 1510 1511 1512 1513 1514
1504 1504 1504 1504 1505 1505 1505 1506 1506 1506 1507 1507 1508 1508 1508 1509 1509 1510 1510 1510 1510 1510 1510 1510 1510 1510 1511 1511 1511 1510 1510 1509 1509 1509 1509 1510 1511 1512
1501 1501 1501 1502 1502 1502 1503 1503 1503 1503 1504 1504 1505 1505 1505 1506 1506 1506 1506 1506 1506 1506 1507 1507 1506 1506 1507 1507 1507 1507 1507 1507 1506 1507 1507 1508 1508 1509
1498 1498 1499 1499 1499 1500 1500 1500 1500 1500 1500 1500 1501 1502 1502 1502 1503 1503 1503 1503 1502 1503 1503 1503 1503 1503 1503 1504 1504 1504 1504 1504 1504 1504 1504 1505 1505 1505
1494 1495 1496 1496 1496 1497 1497 1497 1497 1497 1497 1497 1497 1497 1498 1498 1498 1499 1499 1500 1499 1499 1500 1500 1500 1500 1500 1500 1500 1500 1500 1500 1500 1500 1501 1501 1501 1501
1491 1492 1492 1493 1493 1494 1494 1494 1495 1494 1494 1494 1493 1493 1494 1494 1495 1495 1496 1496 1496 1496 1496 1496 1496 1496 1496 1496 1496 1496 1497 1497 1496 1496 1497 1497 1497 1496
1488 1489 1489 1489 1490 1490 1491 1491 1491 1491 1490 1490 1490 1491 1491 1491 1492 1492 1492 1492 1492 1492 1492 1492 1493 1493 1493 1492 1492 1492 1492 1492 1492 1492 1492 1492 1492 1491
1484 1485 1485 1486 1486 1487 1487 1487 1487 1487 1487 1487 1487 1488 1488 1488 1488 1488 1488 1488 1488 1488 1488 1489 1489 1489 1488 1488 1488 1488 1488 1488 1488 1488 1488 1487 1487 1487
1481 1481 1481 1482 1482 1482 1483 1483 1484 1483 1483 1484 1484 1484 1484 1484 1484 1484 1484 1484 1484 1483 1484 1484 1485 1485 1485 1485 1484 1484 1484 1484 1484 1484 1483 1482 1482 1482
1477 1476 1477 1477 1478 1478 1479 1479 1480 1480 1480 1480 1480 1480 1480 1480 1480 1480 1480 1480 1480 1480 1480 1480 1480 1480 1480 1480 1481 1480 1480 1480 1480 1479 1479 1478 1477 1478
1473 1473 1473 1473 1474 1474 1475 1475 1475 1476 1476 1476 1476 1476 1476 1476 1476 1476 1476 1476 1476 1476 1476 1476 1476 1476 1475 1474 1475 1476 1476 1475 1475 1474 1474 1473 1472 1472
1468 1469 1469 1469 1470 1470 1470 1471 1471 1472 1472 1472 1472 1472 1472 1472 1472 1472 1472 1472 1472 1472 1471 1471 1472 1472 1471 1471 1470 1470 1471 1471 1470 1469 1469 1468 1468 1468
1464 1465 1465 1465 1466 1466 1466 1466 1467 1467 1467 1468 1468 1468 1468 1468 1468 1468 1468 1468 1468 1467 1467 1466 1467 1468 1467 1467 1466 1464 1465 1466 1466 1465 1464 1463 1462 1461
1460 1460 1461 1461 1461 1462 1462 1462 1462 1462 1463 1463 1463 1463 1464 1464 1464 1464 1463 1463 1463 1463 1463 1463 1463 1463 1462 1461 1460 1460 1459 1460 1460 1460 1460 1459 1457 1455
1455 1456 1456 1456 1457 1457 1457 1457 1457 1457 1457 1458 1458 1458 1459 1459 1459 1459 1459 1459 1459 1458 1458 1458 1457 1457 1457 1457 1456 1455 1454 1454 1453 1453 1453 1453 1453 1452